User: anonymous   Login
Location: Unspecified
(0.0000°N, 0.0000°E)
Time: 21:57:54
(UTC+00:00)
Language:

PERSEUS M1 - Orbit

View from above orbital plane
View from above orbital plane
View from above satellite
View from above satellite

Ground track
Ground track

The orbit data is extracted from the following two-line orbital elements,

1 40039U 14033AF  17082.93691789 +.00000162 +00000-0 +24897-4 0  9990
2 40039 097.9184 351.7206 0013365 216.2697 143.7613 14.85813440149109
Epoch (UTC): 23 March 2017 22:29:09
Eccentricity: 0.0013365
inclination: 97.9184°
perigee height: 601 km
apogee height: 620 km
right ascension of ascending node: 351.7206°
argument of perigee: 216.2697°
revolutions per day: 14.85813440
mean anomaly at epoch: 143.7613°
orbit number at epoch: 14910

The dashed part of the orbit path shows where the satellite is in the earth's shadow,  

DLR